Friday Harbor, WA

3:28 AM PDT on May 25, 2017 (GMT -0700)
Friday Harbor

Weather History for KFHR - February, 2013

Change the Weather History Date:

Friday, February 22, 2013

  Actual Average Record
Temperature  
Mean Temperature 44 °F -  
Max Temperature 48 °F 46 °F 55 °F (2004)
Min Temperature 39 °F 34 °F 30 °F (2011)
Degree Days  
Heating Degree Days 22    
Moisture  
Dew Point 39 °F    
Average Humidity 86    
Maximum Humidity 100    
Minimum Humidity 65    
Precipitation  
Precipitation 0.15 in - - ()
Sea Level Pressure  
Sea Level Pressure 29.79 in    
Wind  
Wind Speed 9 mph (South)    
Max Wind Speed 22 mph    
Max Gust Speed 36 mph    
Visibility 9 miles    
Events Rain    
Averages and records for this station are not official NWS values.
T = Trace of Precipitation, MM = Missing Value Source: NWS Daily Summary

Daily Weather History Graph

Daily Weather History Graph

Search for Another Location

Airport or City:

Trip Planner

Search our weather history database for the weather conditions in past years. The results will help you decide how hot, cold, wet, or windy it might be!

Date:

Astronomy

Feb. 22, 2013 Rise Set
Actual Time 7:06 AM PST 5:45 PM PST
Civil Twilight 6:34 AM PST 6:17 PM PST
Nautical Twilight 5:58 AM PST 6:53 PM PST
Astronomical Twilight 5:21 AM PST 7:30 PM PST
Moon 2:53 PM PST (2/22) 5:05 AM PST (2/22)
Length of Visible Light 11h 42m
Length of Day
10h 39m
Waxing Gibbous, 91% of the Moon is Illuminated
Feb 22
Waxing Gibbous
Feb 25
Full
Mar 4
Last Quarter
Mar 11
New
Mar 19
First Quarter

Hourly Weather History & Observations

Time (PST) Temp. Windchill Dew Point Humidity Pressure Visibility Wind Dir Wind Speed Gust Speed Precip Events Conditions
12:04 AM 42.8 °F 41.1 °F 39.2 °F 87% 30.02 in 8.0 mi South 3.5 mph - 0.01 in Rain Light Rain
12:53 AM 41.0 °F 39.0 °F 39.0 °F 93% 30.02 in 8.0 mi WSW 3.5 mph - 0.03 in Rain Light Rain
1:34 AM 41.0 °F - 39.2 °F 93% 30.00 in 7.0 mi Calm Calm - 0.01 in Rain Light Rain
1:50 AM 41.0 °F - 39.2 °F 93% 29.98 in 6.0 mi Calm Calm - 0.01 in Rain Light Rain
1:53 AM 41.0 °F - 39.9 °F 96% 29.99 in 5.0 mi Calm Calm - 0.01 in Rain Light Rain
2:21 AM 42.8 °F 38.6 °F 39.2 °F 87% 29.98 in 8.0 mi SSE 6.9 mph - 0.02 in Rain Light Rain
2:30 AM 42.8 °F 37.0 °F 39.2 °F 87% 29.97 in 10.0 mi SSE 10.4 mph - 0.02 in   Overcast
2:53 AM 42.1 °F 36.1 °F 39.9 °F 92% 29.97 in 10.0 mi SSE 10.4 mph - 0.02 in Rain Light Rain
3:06 AM 42.8 °F 37.0 °F 39.2 °F 87% 29.96 in 10.0 mi SE 10.4 mph - 0.00 in Rain Light Rain
3:53 AM 42.1 °F 37.1 °F 39.0 °F 89% 29.93 in 10.0 mi ESE 8.1 mph - 0.00 in   Overcast
4:15 AM 42.8 °F 37.0 °F 39.2 °F 87% 29.90 in 10.0 mi ESE 10.4 mph - N/A   Overcast
4:53 AM 42.1 °F 35.2 °F 39.0 °F 89% 29.86 in 10.0 mi ESE 12.7 mph - N/A   Mostly Cloudy
5:53 AM 43.0 °F 34.5 °F 37.9 °F 82% 29.82 in 10.0 mi SE 19.6 mph 26.5 mph N/A   Overcast
6:53 AM 44.1 °F 36.2 °F 39.0 °F 82% 29.78 in 10.0 mi SE 18.4 mph 27.6 mph N/A   Overcast
7:12 AM 44.6 °F 37.2 °F 39.2 °F 81% 29.79 in 10.0 mi SE 17.3 mph 25.3 mph 0.00 in Rain Light Rain
7:27 AM 42.8 °F 35.4 °F 39.2 °F 87% 29.78 in 6.0 mi SE 15.0 mph 24.2 mph 0.00 in Rain Light Rain
7:53 AM 43.0 °F 37.7 °F 39.9 °F 89% 29.76 in 6.0 mi SE 9.2 mph 20.7 mph 0.01 in Rain Light Rain
8:53 AM 43.0 °F 37.2 °F 41.0 °F 93% 29.73 in 7.0 mi ESE 10.4 mph - 0.01 in Rain Light Rain
9:53 AM 43.0 °F 35.7 °F 42.1 °F 97% 29.71 in 5.0 mi SE 15.0 mph 19.6 mph 0.05 in Rain Light Rain
10:19 AM 44.6 °F 36.1 °F 41.0 °F 87% 29.67 in 7.0 mi SE 21.9 mph 31.1 mph 0.01 in Rain Light Rain
10:49 AM 44.6 °F 38.1 °F 41.0 °F 87% 29.68 in 10.0 mi SE 13.8 mph 26.5 mph 0.01 in Rain Light Rain
10:53 AM 44.1 °F 35.7 °F 41.0 °F 89% 29.67 in 10.0 mi SE 20.7 mph 26.5 mph 0.01 in Rain Light Rain
11:44 AM 42.8 °F 34.0 °F 41.0 °F 93% 29.67 in 8.0 mi SSE 20.7 mph 27.6 mph 0.00 in Rain Light Rain
11:53 AM 43.0 °F 34.2 °F 42.1 °F 97% 29.67 in 7.0 mi SSE 20.7 mph 29.9 mph 0.00 in Rain Light Rain
12:26 PM 42.8 °F 35.8 °F 42.8 °F 100% 29.66 in 10.0 mi South 13.8 mph 23.0 mph 0.01 in   Overcast
12:53 PM 44.1 °F 39.0 °F 42.1 °F 93% 29.64 in 10.0 mi South 9.2 mph 16.1 mph 0.01 in   Overcast
1:15 PM 44.6 °F 40.2 °F 42.8 °F 93% 29.64 in 10.0 mi South 8.1 mph - N/A   Overcast
1:22 PM 44.6 °F 40.2 °F 41.0 °F 87% 29.64 in 10.0 mi SSE 8.1 mph - N/A   Overcast
1:53 PM 46.9 °F - 42.1 °F 83% 29.65 in 10.0 mi SSE 8.1 mph - N/A   Overcast
2:28 PM 48.2 °F - 39.2 °F 71% 29.65 in 10.0 mi WSW 15.0 mph 24.2 mph N/A   Overcast
2:53 PM 46.0 °F 41.4 °F 37.0 °F 71% 29.67 in 10.0 mi SW 9.2 mph 24.2 mph N/A   Overcast
3:53 PM 45.0 °F 39.3 °F 36.0 °F 71% 29.67 in 10.0 mi WSW 11.5 mph 24.2 mph N/A   Partly Cloudy
4:53 PM 44.1 °F 37.7 °F 33.1 °F 65% 29.67 in 10.0 mi WSW 12.7 mph 32.2 mph N/A   Clear
5:53 PM 41.0 °F 32.5 °F 33.1 °F 73% 29.68 in 10.0 mi SW 17.3 mph 35.7 mph N/A   Clear
6:53 PM 39.0 °F 32.8 °F 34.0 °F 82% 29.73 in 10.0 mi WSW 9.2 mph 21.9 mph N/A   Clear
7:45 PM 39.2 °F 31.2 °F 33.8 °F 81% 29.76 in 10.0 mi SW 13.8 mph 20.7 mph N/A   Mostly Cloudy
7:53 PM 39.9 °F 31.8 °F 34.0 °F 79% 29.75 in 10.0 mi SW 15.0 mph 24.2 mph N/A   Mostly Cloudy
8:53 PM 39.9 °F 32.9 °F 34.0 °F 79% 29.76 in 10.0 mi SW 11.5 mph 25.3 mph N/A   Mostly Cloudy
9:53 PM 39.9 °F 33.9 °F 34.0 °F 79% 29.80 in 10.0 mi SW 9.2 mph 20.7 mph N/A   Scattered Clouds
10:53 PM 39.9 °F 34.5 °F 34.0 °F 79% 29.84 in 10.0 mi SW 8.1 mph 20.7 mph N/A   Overcast
11:53 PM 39.9 °F 32.9 °F 34.0 °F 79% 29.86 in 10.0 mi SW 11.5 mph 20.7 mph N/A   Overcast